Location: Berlise
(49.6641°N, 4.1077°E)
Time: 02:20:43
(UTC+00:00)

Cosmos 1758 Rocket - Pass Details

Date: 27 January 2021
Orbit: 601 x 636 km, 82.5° (Epoch: 28 February)

Event Time Altitude Azimuth Distance (km) Brightness Sun altitude
Exits shadow 05:56:19 - 342° (NNW) 2,750 6.6 -13.9°
Reaches altitude 10° 05:58:12 10° 335° (NNW) 2,030 5.9 -13.6°
Maximum altitude 06:02:19 37° 269° (W) 996 4.1 -13.0°
Drops below altitude 10° 06:06:24 10° 202° (SSW) 2,000 6.1 -12.3°
Sets 06:08:43 0° 194° (SSW) 2,896 7.0 -12.0°
